www.pogodaiklimat.ru

Погода и климат >> Архив погоды >> Россия >> Волгоградская область >> Калач-на-Дону


ПОГОДА в Калаче-на-Дону

  • Прогноз погоды в Калаче-на-Дону
  • Монитор погоды в Калаче-на-Дону

АРХИВ ПОГОДЫ в Калаче-на-Дону

Время (UTC), дата Ветер
(напр.,м/с)
 
Видим.   Явления Облачность Т
(С)
Тd
(С)
f
(%)
Тe
(С)
Тes
(С)
Комфортность P
(гПа)
Po
(гПа)
Тmin
(С)
Tmax
(С)
R
(мм)
R24
(мм)
S
(см)
00 16.09 В 1 10 км ясно +6.1 +2.5 78 +5 +5 1018.9 1014.2
03 16.09 ЮЗ 3 20 км 6/0
[Ac trans]
+12.4 +8.6 78 +11 +11 1018.5 1013.9 +5.9
06 16.09 З 4-10
{11}
20 км ясно +18.6 +4.1 38 +19 +22 1017.1 1012.6
09 16.09 З 5-10
{12}
20 км ясно +22.5 -0.9 21 +22 +27 комфорт 1014.3 1009.8
12 16.09 З 5-11
{12}
20 км ясно +24.1 -2.2 17 +22 +25 комфорт 1011.4 1007.0
15 16.09 З 3
{11}
20 км 3/0
[Ci fib]
+22.9 -2.4 18 +21 +21 комфорт 1010.0 1005.6 +24.5
18 16.09 ЮЗ 3 10 км 3/0
[Ci fib]
+18.8 -1.6 25 +19 +19 1010.1 1005.6
21 16.09 З 4-10
{10}
10 км ясно +18.6 -0.7 27 +19 +19 1009.2 1004.7
00 17.09 З 3
{11}
10 км ясно +17.1 +0.6 33 +17 +17 1008.3 1003.8
03 17.09 ЮВ 2 20 км ясно +13.6 +2.8 48 +13 +13 1008.2 1003.7 +13.6
06 17.09 ЮЗ 3 20 км 3/0
[Ac trans]
+19.7 +7.0 44 +21 +24 комфорт 1007.5 1003.1 +13.5
09 17.09 З 4
{11}
20 км 5/0
[Ac trans]
+25.7 +6.7 30 +26 +30 жарко 1005.8 1001.5
12 17.09 СЗ 5-11
{13}
20 км 8/4 600 м
[Cb cap Ac trans Ci fib]
+26.4 +6.3 28 +26 +27 жарко 1004.8 1000.5
15 17.09 З 5-10
{12}
20 км 10/5 600 м
[Cb cap Ac trans]
+21.9 +6.8 38 +23 +23 комфорт 1005.8 1001.4 +27.2
18 17.09 З 2
{11}
10 км слаб. дождь 10/0 300 м
[As op]
+15.9 +11.7 76 +16 +16 1007.2 1002.7
21 17.09 З 2 10 км {дождь} 10/10 600 м
[Sc]
+14.8 +11.8 82 +14 +14 1007.6 1003.1
00 18.09 С 2 10 км {дождь} 3/0
[Ac trans]
+13.1 +10.6 85 +12 +12 1008.1 1003.6
03 18.09 ЮВ 1 20 км 6/3 600 м
[Cb cap Ac trans]
+12.3 +10.5 89 +12 +12 1008.3 1003.7 +12.2 0.3
06 18.09 З 2 20 км 9/9 600 м
[Cb cap]
+16.3 +10.7 69 +16 +17 1008.4 1003.9 +12.1
09 18.09 З 4
{10}
20 км 8/0
[Ac trans]
+20.4 +8.3 46 +22 +25 комфорт 1007.3 1002.9
12 18.09 З 5-12
{10}
20 км 8/8 1000 м
[Cu hum]
+22.5 +8.6 41 +24 +24 комфорт 1004.3 999.9
15 18.09 ЮЗ 5-10
{18}
20 км слаб. ливневой дождь, в посл. час гроза 9/9 600 м
[Cb cap]
+18.5 +16.5 88 +19 +19 1002.2 997.8 +22.5 8
18 18.09 З 6-13
{14}
10 км {гроза, ливн. осадки} 10/10 600 м
[Cb cap]
+15.8 +11.7 77 +14 +14 1005.1 1000.7
21 18.09 З 4
{16}
10 км {ливн. осадки} 9/9 600 м
[Cb cap]
+12.7 +7.4 70 +11 +11 1007.8 1003.2
00 19.09 З 6-13
{13}
10 км {ливн. осадки} ясно +10.1 +3.6 64 +7 +7 1010.0 1005.4
03 19.09 З 6-11
{13}
20 км ясно +9.0 +2.9 66 +5 +5 1011.9 1007.3 +8.7 0.5
06 19.09 З 5-10
{13}
20 км ясно +11.7 +4.0 59 +9 +12 1014.9 1010.3
09 19.09 СЗ 4-10
{10}
20 км 8/8 1000 м
[Cu hum]
+14.6 +4.4 50 +14 +15 1016.6 1012.0
12 19.09 З 4
{10}
20 км 8/8 1000 м
[Cu hum]
+15.8 +2.8 42 +15 +16 1017.1 1012.5
15 19.09 З 3 20 км 6/5 600 м
[Cb cap Ac cuf]
+13.4 +2.8 49 +12 +12 1018.4 1013.8 +16.2
18 19.09 З 2 10 км ясно +11.0 +3.1 58 +10 +10 1019.1 1014.4
21 19.09 З 3 10 км ясно +10.3 +2.8 60 +9 +9 1019.1 1014.5
00 20.09 Ю 1 10 км 3/0
[Ci fib]
+7.7 +3.5 75 +7 +7 1018.9 1014.2
03 20.09 В 1 20 км 10/0
[Ac lent Cs]
+6.7 +3.5 80 +6 +6 1018.8 1014.1 +6.6
06 20.09 ЮЗ 2 20 км 10/3 600 м
[Cb cap Ac As]
+12.4 +7.1 70 +12 +13 1018.4 1013.8 +6.5
09 20.09 ЮЗ 3 20 км 10/10 600 м
[Cb cap]
+16.0 +6.9 55 +16 +16 1017.1 1012.6
12 20.09 ЮЗ 2 20 км 10/8 600 м
[Cb cap Ac As]
+16.6 +4.0 43 +17 +17 1015.6 1011.0
15 20.09 Ю 1 20 км в посл. час ливневой дождь 10/10 600 м
[Cb cap]
+11.4 +8.4 82 +11 +11 1015.2 1010.6 +16.6 2
18 20.09 Ю 3
{10}
10 км в посл. час ливневой дождь 10/10 600 м
[Cb cap]
+10.2 +7.0 81 +8 +8 1015.6 1010.9
21 20.09 С 1 10 км слаб. ливневой дождь 10/10 600 м
[Cb cap]
+9.6 +8.0 90 +9 +9 1015.4 1010.7
00 21.09 СЗ 1 10 км {ливн. осадки} 10/10 600 м
[Cb cap]
+9.0 +7.5 90 +8 +8 1014.7 1010.1
03 21.09 З 3 10 км {ливн. осадки} 10/10 600 м
[Cb cap]
+9.1 +7.0 87 +7 +7 1014.3 1009.6 +9.0 4
06 21.09 СЗ 3 20 км {дождь} 6/6 600 м
[Cb cap]
+11.2 +6.7 74 +9 +11 1014.1 1009.5
09 21.09 СЗ 2 20 км 8/8 600 м
[Cb cap]
+15.1 +4.6 49 +15 +17 1013.3 1008.7
12 21.09 В 1 20 км в посл. час ливневой дождь 6/6 600 м
[Cb cap]
+12.0 +5.7 65 +12 +14 1013.4 1008.8
15 21.09 В 1 20 км в посл. час ливневой дождь 9/9 600 м
[Cb cap]
+9.5 +8.1 91 +9 +9 1014.0 1009.4 +15.5 3
18 21.09 З 1 10 км {ливн. осадки} 8/8 600 м
[Cb cap]
+8.5 +5.4 81 +8 +8 1014.7 1010.1
21 21.09 СЗ 2 10 км 8/8 600 м
[Cb cap]
+8.9 +4.5 74 +7 +7 1014.6 1010.0
00 22.09 СЗ 3 10 км 4/0
[Ac trans]
+7.7 +3.9 77 +5 +5 1014.6 1009.9
03 22.09 З 4 20 км 5/0
[Ci fib]
+6.1 +2.9 80 +2 +2 1014.9 1010.2 +6.1
06 22.09 З 4 20 км 10/0
[Ac und]
+9.0 +3.1 67 +6 +7 1014.5 1009.9 +5.9
09 22.09 З 7-14
{16}
20 км 10/8 600 м
[Cb cap Ac und]
+11.7 +0.6 46 +9 +9 1011.4 1006.8
12 22.09 З 7-16
{18}
10 км слаб. дождь 10/10 300 м
[Frnb Ns]
+10.4 +8.8 90 +7 +7 1008.1 1003.5
15 22.09 З 7-13
{16}
10 км слаб. дождь 10/10 300 м
[Frnb Ns]
+11.9 +9.2 84 +9 +9 1007.2 1002.7 +12.1 3
18 22.09 З 5-10
{15}
10 км {дождь} 10/0
[Ac und]
+12.9 +9.8 81 +11 +11 1007.7 1003.2
21 22.09 СЗ 4
{14}
10 км 10/10 600 м
[Sc]
+12.5 +7.2 70 +11 +11 1008.1 1003.5

 

Местоположение метеостанции Калач-на-Дону (Волгоградская область, Россия): широта 48.68 долгота 43.48 высота над уровнем моря 38 м.

В архиве по умолчанию представлена погода в Калаче-на-Дону за последнюю неделю. Архивные данные за месяц целиком и за предыдущие месяцы, начиная с января 2011 года, Вы можете получить, выбрав интересующий диапазон дат из раскрывающегося списка и нажав кнопку "Ввод!".


*Определитесь, кто Вы:
робот инопланетянин человек

Внимание! Время в таблицах - всемирное. Для получения местного времени необходимо прибавить поправку, которая равна 3 ч.

Смотрите также архив погоды в соседних городах и на ближайших метеорологических станциях:

Погода в Нижнем Чире (Волгоградская область, Россия) (47 км)
Погода в Волгограде (Волгоградская область, Россия) (66 км)
Погода в Волгограде город (Волгоградская область, Россия) (71 км)
Погода в Иловле (Волгоградская область, Россия) (79 км)
Погода в Серафимовиче (Волгоградская область, Россия) (113 км)
Погода в Котельниково (Волгоградская область, Россия) (119 км)
Погода в Малых Дербетах (Калмыкия, Россия) (123 км)
Погода в Морозовске (Ростовская область, Россия) (124 км)
Погода в Фролове (Волгоградская область, Россия) (125 км)
Погода в Боковской (Ростовская область, Россия) (135 км)

Пояснения к столбцам:

Ветер - указаны скорость ветра в м/с - средняя за 10 мин, порывы в срок и между сроками (в фигурных скобках) и направление, откуда дует ветер: С - северный, СВ - северо-восточный, В - восточный, ЮВ - юго-восточный, Ю - южный, ЮЗ - юго-западный, З - западный, СЗ - северо-западный.
Видимость - горизонтальная дальность видимости в метрах или километрах. При видимости от 1 до 10 км при отсутствии осадков обычно наблюдается дымка, при ухудшении видимости до 1 км и менее - туман. В сухую погоду видимость может ухудшаться дымом, пылью или мглою.
Явления - указаны атмосферные явления, наблюдавшиеся в срок или в последний час перед сроком; фигурными скобками обозначены явления, наблюдавшиеся между сроками (за 1-3 часа до срока); квадратными скобками обозначены град или гололедные отложения с указанием их диаметра в мм.
Облачность - указаны через наклонную черту общая и нижняя облачность в баллах и высота нижней границы облаков в метрах; квадратными скобками обозначены формы облаков: Ci - перистые, Cs - перисто-слоистые, Cc - перисто-кучевые, Ac - высококучевые, As - высокослоистые, Sc - слоисто-кучевые, Ns - слоисто-дождевые, Cu - кучевые, Cb - кучево-дождевые. Подробнее классификацию облаков см. в Атласе облаков (PDF).
T - Температура воздуха - температура, измеренная на высоте 2 м над землей.
Td - Температура точки росы - температура, при понижении до которой содержащийся в воздухе водяной пар достигнет насыщения.
f - Относительная влажность воздуха - влажноcть воздуха, измеренная на высоте 2 м над землей.
Te - Эффективная температура - температура, которую ощущает одетый по сезону человек в тени. Характеристика душности погоды. При расчете учитывается влияние влажности воздуха и скорости ветра на теплоощущения человека.
Tes - Эффективная температура на солнце - температура, которую ощущает человек, с поправкой на солнечный нагрев. Характеристика знойности погоды. Зависит от высоты солнца над горизонтом, облачности и скорости ветра. Ночью, в пасмурную погоду, а также при ветре 12 м/с и более поправка равна нулю.
P - Атмосферное давление - приведенное к уровню моря атмосферное давление.
Po - Атмосферное давление - измеренное на уровне метеостанции атмосферное давление.
Tmin - Минимальная температура - минимум температуры воздуха на высоте 2 м над землей.
Tmax - Максимальная температура - максимум температуры воздуха на высоте 2 м над землей.
R - Количество осадков - Количество выпавших осадков за период времени, мм. При наведении курсора мыши на число - период времени, за который выпало указанное количество осадков.
R24 - Количество осадков - Количество выпавших осадков за 24 часа, мм.
S - Снежный покров - Высота снежного покрова, см. При наведении курсора мыши на число - состояние снежного покрова и степень покрытия местности в баллах.